Weather History for Brookings, SD

Change the Weather History Date:

Saturday, January 19, 2013

  Actual Average Record
Temperature  
Mean Temperature 19 °F -  
Max Temperature 37 °F 20 °F 37 °F (2013)
Min Temperature 1 °F 4 °F -16 °F (2008)
Degree Days  
Heating Degree Days 46    
Moisture  
Dew Point 18 °F    
Average Humidity 75    
Maximum Humidity 85    
Minimum Humidity 59    
Precipitation  
Precipitation 0.00 in - - ()
Sea Level Pressure  
Sea Level Pressure 29.98 in    
Wind  
Wind Speed 14 mph (WNW)    
Max Wind Speed 34 mph    
Max Gust Speed 45 mph    
Visibility 10 miles    
Events      
Averages and records for this station are not official NWS values.
T = Trace of Precipitation, MM = Missing Value Source: NWS Daily Summary

Daily Weather History Graph

Daily Weather History Graph

Search for Another Location

Airport:

Trip Planner

Search our weather history database for the weather conditions in past years. The results will help you decide how hot, cold, wet, or windy it might be!

Date:

Astronomy

Jan. 19, 2013 Rise Set
Actual Time 7:57 AM CST 5:19 PM CST
Civil Twilight 7:25 AM CST 5:51 PM CST
Nautical Twilight 6:49 AM CST 6:27 PM CST
Astronomical Twilight 6:15 AM CST 7:01 PM CST
Moon 11:49 AM CST (1/19) 1:29 AM CST (1/19)
Length of Visible Light 10h 26m
Length of Day
9h 22m
First Quarter, 57% of the Moon is Illuminated
Jan 19
First Quarter
Jan 26
Full
Feb 3
Last Quarter
Feb 10
New
Feb 17
First Quarter

Hourly Weather History & Observations

Time (CST) Temp. Windchill Dew Point Humidity Pressure Visibility Wind Dir Wind Speed Gust Speed Precip Events Conditions
12:15 AM 35.6 °F 29.9 °F 30.2 °F 81% 29.77 in 10.0 mi South 6.9 mph - N/A   Overcast
12:35 AM 33.8 °F 27.7 °F 28.4 °F 81% 29.76 in 10.0 mi South 6.9 mph - N/A   Partly Cloudy
12:55 AM 35.6 °F 30.7 °F 28.4 °F 75% 29.76 in 10.0 mi South 5.8 mph - N/A   Mostly Cloudy
1:15 AM 35.6 °F 29.2 °F 28.4 °F 75% 29.76 in 10.0 mi SSW 8.1 mph - N/A   Overcast
1:35 AM 35.6 °F 29.9 °F 28.4 °F 75% 29.76 in 10.0 mi SSW 6.9 mph - N/A   Scattered Clouds
1:55 AM 35.6 °F 29.9 °F 28.4 °F 75% 29.76 in 10.0 mi WSW 6.9 mph - N/A   Scattered Clouds
2:15 AM 35.6 °F 28.0 °F 28.4 °F 75% 29.76 in 10.0 mi WSW 10.4 mph - N/A   Scattered Clouds
2:35 AM 35.6 °F 29.2 °F 28.4 °F 75% 29.76 in 10.0 mi WSW 8.1 mph - N/A   Clear
2:55 AM 35.6 °F 31.7 °F 28.4 °F 75% 29.76 in 10.0 mi WSW 4.6 mph - N/A   Clear
3:15 AM 35.6 °F 29.9 °F 28.4 °F 75% 29.76 in 10.0 mi West 6.9 mph - N/A   Clear
3:35 AM 33.8 °F 26.4 °F 26.6 °F 75% 29.76 in 10.0 mi WSW 9.2 mph - N/A   Mostly Cloudy
3:55 AM 33.8 °F 25.8 °F 26.6 °F 75% 29.77 in 10.0 mi West 10.4 mph - N/A   Overcast
4:15 AM 35.6 °F 27.5 °F 26.6 °F 70% 29.76 in 10.0 mi West 11.5 mph - N/A   Scattered Clouds
4:35 AM 33.8 °F 26.4 °F 26.6 °F 75% 29.76 in 10.0 mi West 9.2 mph - N/A   Clear
4:55 AM 33.8 °F 26.4 °F 26.6 °F 75% 29.76 in 10.0 mi West 9.2 mph - N/A   Clear
5:15 AM 33.8 °F 27.0 °F 26.6 °F 75% 29.76 in 10.0 mi West 8.1 mph - N/A   Clear
5:35 AM 32.0 °F 23.6 °F 26.6 °F 80% 29.77 in 10.0 mi West 10.4 mph - N/A   Clear
5:55 AM 33.8 °F 26.4 °F 26.6 °F 75% 29.77 in 10.0 mi West 9.2 mph 16.1 mph N/A   Clear
6:15 AM 32.0 °F 24.2 °F 26.6 °F 80% 29.78 in 10.0 mi West 9.2 mph - N/A   Clear
6:35 AM 32.0 °F 24.8 °F 26.6 °F 80% 29.78 in 10.0 mi West 8.1 mph - N/A   Mostly Cloudy
6:55 AM 32.0 °F 22.5 °F 26.6 °F 80% 29.80 in 10.0 mi West 12.7 mph 16.1 mph N/A   Overcast
7:15 AM 32.0 °F 21.6 °F 26.6 °F 80% 29.81 in 10.0 mi West 15.0 mph - N/A   Mostly Cloudy
7:35 AM 33.8 °F 24.3 °F 26.6 °F 75% 29.82 in 10.0 mi West 13.8 mph - N/A   Mostly Cloudy
7:55 AM 32.0 °F 22.5 °F 26.6 °F 80% 29.82 in 10.0 mi West 12.7 mph - N/A   Partly Cloudy
8:15 AM 32.0 °F 21.6 °F 26.6 °F 80% 29.83 in 10.0 mi West 15.0 mph - N/A   Clear
8:35 AM 32.0 °F 21.6 °F 26.6 °F 80% 29.84 in 10.0 mi WNW 15.0 mph - N/A   Clear
8:55 AM 32.0 °F 22.1 °F 26.6 °F 80% 29.86 in 10.0 mi WNW 13.8 mph - N/A   Partly Cloudy
9:15 AM 33.8 °F 25.3 °F 28.4 °F 81% 29.87 in 10.0 mi WNW 11.5 mph - N/A   Scattered Clouds
9:35 AM 33.8 °F 24.8 °F 28.4 °F 81% 29.88 in 10.0 mi WNW 12.7 mph - N/A   Mostly Cloudy
9:55 AM 33.8 °F 25.3 °F 28.4 °F 81% 29.89 in 10.0 mi WNW 11.5 mph - N/A   Mostly Cloudy
10:15 AM 35.6 °F 28.0 °F 28.4 °F 75% 29.91 in 10.0 mi West 10.4 mph - N/A   Partly Cloudy
10:35 AM 35.6 °F 27.5 °F 30.2 °F 81% 29.91 in 10.0 mi West 11.5 mph - N/A   Clear
10:55 AM 35.6 °F 26.6 °F 30.2 °F 81% 29.92 in 10.0 mi West 13.8 mph - N/A   Clear
11:15 AM 35.6 °F 25.9 °F 30.2 °F 81% 29.92 in 10.0 mi West 16.1 mph - N/A   Clear
11:35 AM 37.4 °F 28.2 °F 30.2 °F 75% 29.93 in 10.0 mi West 16.1 mph - N/A   Clear
11:55 AM 37.4 °F 26.9 °F 30.2 °F 75% 29.93 in 10.0 mi West 20.7 mph - N/A   Partly Cloudy
12:15 PM 37.4 °F 26.4 °F 30.2 °F 75% 29.93 in 10.0 mi WNW 23.0 mph 28.8 mph N/A   Mostly Cloudy
12:35 PM 35.6 °F 23.7 °F 30.2 °F 81% 29.93 in 10.0 mi WNW 24.2 mph 33.4 mph N/A   Overcast
12:55 PM 35.6 °F 24.2 °F 30.2 °F 81% 29.94 in 10.0 mi West 21.9 mph 25.3 mph N/A   Overcast
1:15 PM 35.6 °F 24.0 °F 30.2 °F 81% 29.94 in 10.0 mi West 23.0 mph 31.1 mph N/A   Overcast
1:35 PM 35.6 °F 23.2 °F 28.4 °F 75% 29.95 in 10.0 mi West 26.5 mph 35.7 mph N/A   Overcast
1:55 PM 35.6 °F 21.7 °F 24.8 °F 65% 29.95 in 10.0 mi WNW 34.5 mph 40.3 mph N/A   Overcast
2:15 PM 33.8 °F 19.9 °F 21.2 °F 60% 29.98 in 10.0 mi WNW 31.1 mph 42.6 mph N/A   Overcast
2:35 PM 28.4 °F 15.1 °F 21.2 °F 74% 30.01 in 10.0 mi NW 20.7 mph - N/A   Mostly Cloudy
2:55 PM 28.4 °F 14.7 °F 21.2 °F 74% 30.02 in 10.0 mi WNW 21.9 mph 27.6 mph N/A   Mostly Cloudy
3:15 PM 26.6 °F 10.8 °F 19.4 °F 74% 30.03 in 10.0 mi WNW 27.6 mph 34.5 mph N/A   Mostly Cloudy
3:35 PM 24.8 °F 7.9 °F 15.8 °F 69% 30.05 in 10.0 mi WNW 29.9 mph 40.3 mph N/A   Scattered Clouds
3:55 PM 23.0 °F 5.1 °F 10.4 °F 59% 30.07 in 10.0 mi WNW 31.1 mph 44.9 mph N/A   Partly Cloudy
4:15 PM 19.4 °F -0.6 °F 10.4 °F 68% 30.09 in 10.0 mi WNW 34.5 mph 39.1 mph N/A   Scattered Clouds
4:35 PM 17.6 °F -2.8 °F 8.6 °F 68% 30.12 in 10.0 mi WNW 33.4 mph 42.6 mph N/A   Mostly Cloudy
4:55 PM 15.8 °F -3.7 °F 6.8 °F 68% 30.14 in 3.0 mi NW 27.6 mph 42.6 mph N/A   Overcast
5:15 PM 14.0 °F -6.5 °F 6.8 °F 73% 30.16 in 6.0 mi NW 28.8 mph 38.0 mph N/A   Overcast
5:35 PM 12.2 °F -8.2 °F 5.0 °F 73% 30.18 in 10.0 mi WNW 26.5 mph 39.1 mph N/A   Overcast
5:55 PM 12.2 °F -8.6 °F 8.6 °F 85% 30.20 in 1.2 mi WNW 27.6 mph 35.7 mph N/A   Overcast
6:15 PM 10.4 °F -11.7 °F 3.2 °F 73% 30.21 in 10.0 mi NW 29.9 mph 35.7 mph N/A   Mostly Cloudy
6:35 PM 10.4 °F -10.7 °F 3.2 °F 73% 30.22 in 10.0 mi WNW 26.5 mph 32.2 mph N/A   Clear
6:55 PM 8.6 °F -12.7 °F 1.4 °F 73% 30.23 in 10.0 mi NW 25.3 mph 35.7 mph N/A   Clear
7:15 PM 8.6 °F -13.4 °F -0.4 °F 67% 30.23 in 10.0 mi NW 27.6 mph - N/A   Clear
7:35 PM 6.8 °F -13.4 °F -2.2 °F 67% 30.25 in 10.0 mi WNW 20.7 mph 32.2 mph N/A   Clear
7:55 PM 6.8 °F -11.8 °F -0.4 °F 72% 30.27 in 10.0 mi NW 17.3 mph - N/A   Clear
8:15 PM 6.8 °F -13.8 °F -0.4 °F 72% 30.27 in 10.0 mi NW 21.9 mph - N/A   Clear
8:35 PM 5.0 °F -15.7 °F -2.2 °F 72% 30.28 in 10.0 mi WNW 20.7 mph 24.2 mph N/A   Clear
8:55 PM 5.0 °F -15.2 °F -0.4 °F 78% 30.28 in 10.0 mi NW 19.6 mph 23.0 mph N/A   Clear
9:15 PM 3.2 °F -16.5 °F -4.0 °F 72% 30.29 in 10.0 mi WNW 17.3 mph - N/A   Clear
9:35 PM 3.2 °F -15.9 °F -2.2 °F 78% 30.28 in 10.0 mi NW 16.1 mph - N/A   Clear
9:55 PM 3.2 °F -16.5 °F -2.2 °F 78% 30.29 in 10.0 mi NW 17.3 mph 20.7 mph N/A   Clear
10:15 PM 3.2 °F -14.6 °F -4.0 °F 72% 30.30 in 10.0 mi NW 13.8 mph - N/A   Clear
10:35 PM 1.4 °F -16.9 °F -2.2 °F 85% 30.30 in 10.0 mi NW 13.8 mph - N/A   Clear
10:55 PM 1.4 °F -17.6 °F -4.0 °F 78% 30.30 in 10.0 mi NW 15.0 mph - N/A   Clear
11:15 PM 1.4 °F -15.3 °F -5.8 °F 72% 30.30 in 10.0 mi WNW 11.5 mph - N/A   Clear
11:35 PM 1.4 °F -16.9 °F -2.2 °F 85% 30.31 in 10.0 mi NW 13.8 mph - N/A   Clear
11:55 PM 1.4 °F -15.3 °F -5.8 °F 72% 30.31 in 10.0 mi WNW 11.5 mph - N/A   Clear